Flag Weather past 2 weeks in Surgut, Russia

Now
-11 °F

Clear.


Feels Like: -25 °F
Forecast: -23 / -15 °F
Wind: 6 mph from Northeast

Location: Surgut Airport

Current Time: Nov 22, 2014 at 8:52:55 PM

Latest Report: Nov 22, 2014 at 8:30 PM


Visibility: 4 mi

Pressure: 29.89 "Hg

Humidity: 76%

Dew point: -17 °F

Location of SurgutLocation

Historic Weather in Surgut — Graph

°F

Surgut temperature yesterday

Maximum temperature yesterday: 25 °F (at 12:30 AM)
Minimum temperature yesterday: 5 °F (at 6:30 PM)
Average temperature yesterday: 16 °F

Past Weeks' High & Low Weather Summary

 TemperatureHumidityPressure
High34 °F (Nov 13, 5:00 AM)100% (Nov 12, 11:00 PM)30.63 "Hg (Nov 12, 11:00 PM)
Low-20 °F (Nov 16, 11:30 PM)41% (Nov 10, 12:00 PM)29.39 "Hg (Nov 20, 3:30 PM)
Average11 °F81%30.00 "Hg
* Reported Nov 7 8:00 PM — Nov 22 8:00 PM, Surgut, Weather by CustomWeather, © 2014

Note: Actual official high and low records may vary slightly from our data, if they occured in-between our weather recording intervals... More about our weather records

Advertising

Surgut weather history for previous 24 hours

 ConditionsComfort  
Time TempWeatherWind HumidityBarometerVisibility
8:00 PM
Nov 22
-9 °FPassing clouds.6 mph70%29.89 "Hg4 mi
7:30 PM-8 °FPassing clouds.6 mph70%29.86 "Hg4 mi
7:00 PM-6 °FPartly cloudy.3 mph70%29.86 "Hg4 mi
6:30 PM-4 °FMostly cloudy.3 mph65%29.86 "Hg4 mi
6:00 PM-2 °FOvercast.6 mph65%29.86 "Hg4 mi
5:30 PM-2 °FOvercast.6 mph71%29.86 "Hg4 mi
5:00 PM0 °FLight snow. Overcast.3 mph71%29.83 "Hg4 mi
4:30 PM0 °FLight snow. Overcast.1 mph78%29.83 "Hg4 mi
4:00 PM0 °FLight snow. Mostly cloudy.1 mph78%29.83 "Hg4 mi
3:30 PM0 °FLight snow. Mostly cloudy.1 mph78%29.83 "Hg3 mi
3:00 PM1 °FLight snow. Mostly cloudy.1 mph78%29.83 "Hg2 mi
2:30 PM1 °FLight snow. Mostly cloudy.1 mph78%29.83 "Hg2 mi
2:00 PM1 °FLight snow. Mostly cloudy.1 mph78%29.83 "Hg2 mi
1:30 PM1 °FLight snow. Mostly cloudy.No wind78%29.83 "Hg2 mi
1:00 PM1 °FLight snow. Mostly cloudy.1 mph78%29.86 "Hg2 mi
12:30 PM1 °FLight snow. Mostly cloudy.3 mph78%29.86 "Hg2 mi
12:00 PM1 °FLight snow. Mostly cloudy.3 mph71%29.86 "Hg2 mi
11:30 AM0 °FMore clouds than sun.3 mph78%29.86 "Hg4 mi
11:00 AM0 °FPartly sunny.6 mph78%29.86 "Hg4 mi
10:30 AM0 °FPartly sunny.6 mph78%29.86 "Hg4 mi
10:00 AM0 °FPartly sunny.8 mph78%29.86 "Hg4 mi
9:30 AM-2 °FPartly sunny.8 mph84%29.86 "Hg4 mi
9:00 AM-2 °FPassing clouds.10 mph84%29.86 "Hg4 mi
8:30 AM-2 °FPassing clouds.10 mph84%29.86 "Hg4 mi
8:00 AM-2 °FPassing clouds.13 mph77%29.86 "Hg4 mi
7:30 AM-2 °FPassing clouds.13 mph77%29.86 "Hg4 mi
7:00 AM-2 °FPassing clouds.13 mph77%29.86 "Hg4 mi
6:30 AM-2 °FPassing clouds.13 mph77%29.86 "Hg4 mi
6:00 AM-2 °FPassing clouds.13 mph77%29.86 "Hg4 mi
5:30 AM0 °FPassing clouds.10 mph71%29.86 "Hg4 mi
5:00 AM-2 °FClear.10 mph77%29.86 "Hg4 mi
4:30 AM0 °FPassing clouds.10 mph71%29.86 "Hg4 mi
4:00 AM-2 °FClear.13 mph77%29.83 "Hg4 mi
3:30 AM0 °FClear.13 mph78%29.83 "Hg4 mi
2:30 AM0 °FClear.13 mph71%29.83 "Hg4 mi
2:00 AM1 °FPassing clouds.17 mph65%29.83 "Hg4 mi
1:30 AM1 °FPassing clouds.17 mph65%29.80 "Hg4 mi
1:00 AM3 °FPassing clouds.17 mph66%29.80 "Hg4 mi
12:30 AM3 °FPassing clouds.15 mph72%29.77 "Hg4 mi
12:00 AM5 °FPassing clouds.17 mph78%29.77 "Hg4 mi
11:30 PM
Nov 21
5 °FPassing clouds.17 mph78%29.74 "Hg4 mi
11:00 PM5 °FPassing clouds.17 mph78%29.71 "Hg4 mi
10:30 PM5 °FPassing clouds.15 mph78%29.71 "Hg4 mi
10:00 PM5 °FPassing clouds.17 mph72%29.71 "Hg4 mi
9:30 PM5 °FPassing clouds.15 mph72%29.71 "Hg4 mi
9:00 PM5 °FPassing clouds.13 mph66%29.71 "Hg4 mi
8:30 PM5 °FClear.10 mph66%29.68 "Hg4 mi
8:00 PM5 °FClear.15 mph66%29.68 "Hg4 mi
Weather by CustomWeather, © 2014

See weather overviewHow to use our weather pages